GLOBALSTAR M001 1 25162U 98008A 26037.39522874 -.00000047 00000+0 38162-3 0 9993 2 25162 52.0058 11.5319 0001715 37.4390 128.7854 12.38227025272725 GLOBALSTAR M004 1 25163U 98008B 26037.08367399 -.00000079 00000+0 14086-3 0 9993 2 25163 52.0007 60.5793 0003511 92.4560 302.6194 12.63414177291259 GLOBALSTAR M002 1 25164U 98008C 26037.32686618 -.00000082 00000+0 -11768-3 0 9998 2 25164 52.0044 13.1337 0001227 207.8078 152.2677 11.61515044211278 GLOBALSTAR M003 1 25165U 98008D 26037.64717602 -.00000193 00000+0 -11027-2 0 9992 2 25165 51.9856 239.1251 0008885 47.8345 342.2136 12.12030034261655 GLOBALSTAR M014 1 25306U 98023A 26037.10756649 -.00000051 00000+0 50433-3 0 9998 2 25306 51.9846 291.9929 0001817 66.3670 79.6631 11.65484320218442 GLOBALSTAR M006 1 25307U 98023B 26037.29593786 -.00000079 00000+0 -57889-4 0 9994 2 25307 51.9974 352.7372 0002860 167.8075 341.0277 11.58176397243958 GLOBALSTAR M015 1 25308U 98023C 26037.16967444 -.00000129 00000+0 -12639-2 0 9995 2 25308 51.9821 102.2479 0013282 132.8046 241.0052 11.48861557220971 GLOBALSTAR M008 1 25309U 98023D 26037.03258666 -.00000082 00000+0 11121-3 0 9994 2 25309 51.9945 240.0712 0002055 328.9206 197.4710 12.36080427266761 GLOBALSTAR M023 1 25621U 99004A 26037.05381649 -.00000048 00000+0 31016-3 0 9998 2 25621 52.0111 61.3041 0009367 283.6495 94.5580 12.62516834245274 GLOBALSTAR M040 1 25622U 99004B 26037.46476781 -.00000089 00000+0 81196-4 0 9996 2 25622 51.9921 64.5512 0001139 167.3535 340.0982 12.62028311244836 GLOBALSTAR M036 1 25623U 99004C 26037.23790259 -.00000030 00000+0 77283-3 0 9998 2 25623 52.0001 343.4014 0010684 137.2931 11.2191 11.86618660206761 GLOBALSTAR M038 1 25624U 99004D 26037.55327520 -.00000049 00000+0 38307-3 0 9995 2 25624 51.9972 116.6160 0002281 166.9859 300.8601 12.32540609231277 GLOBALSTAR M022 1 25649U 99012A 26037.33177264 -.00000064 00000+0 27312-3 0 9996 2 25649 52.0067 14.3826 0002440 275.7699 232.6894 12.02509400204549 GLOBALSTAR M041 1 25650U 99012B 26037.00909964 -.00000078 00000+0 99100-4 0 9992 2 25650 52.0002 263.8440 0002248 71.5197 288.5884 11.96683599206279 GLOBALSTAR M046 1 25651U 99012C 26037.17199118 -.00000011 00000+0 85551-3 0 9994 2 25651 52.0079 316.4136 0002296 11.7609 136.8144 12.09417379211971 GLOBALSTAR M037 1 25652U 99012D 26037.61059105 -.00000060 00000+0 24577-3 0 9990 2 25652 51.9986 190.1388 0001801 18.0174 62.7527 12.62461311240889 GLOBALSTAR M045 1 25676U 99019A 26037.31469058 -.00000051 00000+0 37587-3 0 9997 2 25676 51.9996 357.9491 0000419 27.4618 138.5639 12.27072562222136 GLOBALSTAR M019 1 25677U 99019B 26037.62307519 .00000048 00000+0 14402-2 0 9990 2 25677 51.9866 143.9355 0002084 91.6393 13.8993 12.13880402213614 GLOBALSTAR M044 1 25678U 99019C 26037.57286434 -.00000127 00000+0 -60275-3 0 9997 2 25678 51.9965 124.7557 0006814 130.7452 336.3035 11.90262939199236 GLOBALSTAR M042 1 25679U 99019D 26037.21888935 -.00000108 00000+0 -14619-3 0 9993 2 25679 52.0012 110.2688 0003226 73.0488 321.1121 12.22095290213874 GLOBALSTAR M025 1 25770U 99031A 26037.25369859 -.00000075 00000+0 -22848-3 0 9998 2 25770 51.9853 337.0388 0001946 158.3451 12.1404 11.22561105507999 GLOBALSTAR M049 1 25771U 99031B 26037.31012423 -.00000006 00000+0 20456-2 0 9993 2 25771 51.9901 23.4326 0002910 56.6095 303.4979 11.12122008143474 GLOBALSTAR M047 1 25772U 99031C 26037.25238156 -.00000059 00000+0 30442-3 0 9995 2 25772 51.9868 358.1722 0016321 306.0639 53.8654 11.31931976497619 GLOBALSTAR M052 1 25773U 99031D 26037.28150188 -.00000078 00000+0 -41482-3 0 9995 2 25773 51.9859 128.8821 0002985 183.6139 208.6877 11.15063576504628 GLOBALSTAR M035 1 25851U 99037A 26037.08890370 -.00000032 00000+0 12053-2 0 9990 2 25851 51.9919 253.3426 0013901 6.2426 166.4038 11.04542103122101 GLOBALSTAR M032 1 25852U 99037B 26037.09079070 -.00000137 00000+0 -22529-2 0 9994 2 25852 51.9958 62.3950 0012783 200.3391 159.6901 11.19067826160970 GLOBALSTAR M051 1 25853U 99037C 26037.58871891 -.00000075 00000+0 -63862-4 0 9998 2 25853 51.9766 195.4256 0001149 99.1783 260.9157 11.42200052159173 GLOBALSTAR M030 1 25854U 99037D 26037.24582630 -.00000101 00000+0 -55808-3 0 9992 2 25854 51.9913 347.4730 0003795 94.3366 265.7884 11.55108220177096 GLOBALSTAR M048 1 25872U 99041A 26037.62499986 -.00000046 00000+0 65381-3 0 9994 2 25872 51.9362 139.4348 0013062 226.6174 241.2909 11.33862014151579 GLOBALSTAR M026 1 25873U 99041B 26037.34562338 -.00000184 00000+0 -44116-2 0 9992 2 25873 52.0046 8.2539 0001825 308.6717 204.2824 11.06840136174418 GLOBALSTAR M043 1 25874U 99041C 26037.09407457 -.00000046 00000+0 66872-3 0 9995 2 25874 51.9375 257.6614 0013583 354.7819 170.3601 11.25697843149217 GLOBALSTAR M028 1 25875U 99041D 26037.64928496 -.00000094 00000+0 41360-4 0 9997 2 25875 51.9599 213.9314 0062764 219.9521 139.6711 12.50595680219511 GLOBALSTAR M024 1 25883U 99043A 26036.96685601 -.00000010 00000+0 19399-2 0 9993 2 25883 51.9975 213.1312 0002664 107.9912 63.9024 11.10168982140820 GLOBALSTAR M027 1 25884U 99043B 26037.10854381 -.00000083 00000+0 -71965-3 0 9993 2 25884 52.0227 297.4258 0021814 10.5520 349.5727 11.04373522167080 GLOBALSTAR M054 1 25885U 99043C 26037.04222410 -.00000077 00000+0 -14911-3 0 9990 2 25885 52.0162 25.6196 0004713 219.0109 183.8627 11.39223548145702 GLOBALSTAR M053 1 25886U 99043D 26037.19381862 -.00000043 00000+0 73527-3 0 9994 2 25886 52.0020 345.3376 0003565 112.9411 25.0910 11.27669850145843 GLOBALSTAR M058 1 25907U 99049A 26037.61412209 -.00000070 00000+0 19923-3 0 9991 2 25907 51.9916 203.1870 0002210 28.3107 331.7848 11.93208249569523 GLOBALSTAR M050 1 25908U 99049B 26037.65361581 .00000014 00000+0 11586-2 0 9995 2 25908 51.9963 193.2392 0009995 135.1641 305.5985 12.07464845176517 GLOBALSTAR M033 1 25909U 99049C 26037.03716033 -.00000032 00000+0 57817-3 0 9993 2 25909 51.9920 50.6132 0014259 26.8751 333.2833 12.20302678564292 GLOBALSTAR M055 1 25910U 99049D 26037.07586507 -.00000088 00000+0 56146-4 0 9996 2 25910 52.0029 49.8604 0006775 256.2978 103.7120 12.29440358197056 GLOBALSTAR M057 1 25943U 99058A 26037.40484046 -.00000061 00000+0 29299-3 0 9993 2 25943 51.9995 43.4876 0002656 132.8626 227.2447 12.24832999195633 GLOBALSTAR M059 1 25944U 99058B 26037.08945229 .00000002 00000+0 10909-2 0 9994 2 25944 52.0028 294.3876 0001128 67.5268 73.8479 11.99993023602123 GLOBALSTAR M056 1 25945U 99058C 26037.15907816 -.00000103 00000+0 -18067-3 0 9991 2 25945 51.9968 290.1625 0000664 340.4790 187.0456 12.04784334190820 GLOBALSTAR M031 1 25946U 99058D 26037.67941442 .00000052 00000+0 14460-2 0 9995 2 25946 51.9949 167.0183 0000380 318.0817 146.1149 12.16049150193075 GLOBALSTAR M039 1 25961U 99062A 26037.06193215 -.00000063 00000+0 22972-3 0 9998 2 25961 51.9841 276.3715 0002985 129.1666 230.9466 12.62341097209757 GLOBALSTAR M034 1 25962U 99062B 26037.53985132 -.00000059 00000+0 35106-3 0 9996 2 25962 51.9869 122.2011 0014952 124.6749 338.1108 11.79455584166047 GLOBALSTAR M029 1 25963U 99062C 26037.41878343 -.00000076 00000+0 12605-3 0 9997 2 25963 51.9784 181.3274 0002356 190.3579 185.1227 11.99908126197242 GLOBALSTAR M061 1 25964U 99062D 26037.24333409 -.00000078 00000+0 37014-4 0 9992 2 25964 51.9814 310.1175 0006654 46.4809 122.9427 11.76777341148730 GLOBALSTAR M063 1 26081U 00008A 26037.40826406 -.00000090 00000+0 -10429-3 0 9992 2 26081 51.9921 214.7116 0005349 51.9798 319.5458 11.86180889185377 GLOBALSTAR M062 1 26082U 00008B 26037.18221857 -.00000223 00000+0 -89337-3 0 9999 2 26082 51.9848 127.6632 0006823 247.1272 124.7511 12.43479264525731 GLOBALSTAR M060 1 26083U 00008C 26037.24889922 .00000001 00000+0 91074-3 0 9993 2 26083 52.0018 120.5922 0003045 228.0098 165.8763 12.17675404180887 GLOBALSTAR M064 1 26084U 00008D 26037.19186306 -.00000033 00000+0 72058-3 0 9991 2 26084 52.0054 311.3548 0001656 122.6384 237.4609 11.88540569194920 GLOBALSTAR M065 1 31571U 07020A 26037.48885596 -.00000082 00000+0 12458-3 0 9990 2 31571 51.9867 233.1196 0010841 105.3149 268.8906 12.62020226862993 GLOBALSTAR M069 1 31573U 07020C 26037.09195267 -.00000071 00000+0 19819-3 0 9994 2 31573 52.0016 263.1796 0000881 216.4712 310.3759 12.23468039862753 GLOBALSTAR M072 1 31574U 07020D 26037.19388601 -.00000067 00000+0 23075-3 0 9996 2 31574 51.9930 88.9860 0001363 80.3780 314.1992 11.91655484859361 GLOBALSTAR M071 1 31576U 07020F 26037.14851075 -.00000034 00000+0 56149-3 0 9995 2 31576 52.0074 295.2329 0000380 139.5383 27.2176 12.18264964523454 GLOBALSTAR M067 1 32263U 07048A 26037.11579449 -.00000063 00000+0 25767-3 0 9992 2 32263 51.9728 71.4279 0001535 123.7542 252.5806 12.40684643838520 GLOBALSTAR M070 1 32264U 07048B 26037.59850330 -.00000078 00000+0 14387-3 0 9998 2 32264 51.9746 134.3829 0000572 110.0630 357.9540 12.62329933843273 GLOBALSTAR M066 1 32265U 07048C 26037.11208933 -.00000092 00000+0 21662-4 0 9994 2 32265 51.9591 74.1918 0005226 129.1491 247.4445 12.30383854844094 GLOBALSTAR M068 1 32266U 07048D 26037.21623302 -.00000084 00000+0 10987-3 0 9995 2 32266 51.9903 308.8498 0000771 336.4611 188.5558 12.62839375847125 GLOBALSTAR M079 1 37188U 10054A 26037.31817044 -.00000080 00000+0 13401-3 0 9993 2 37188 52.0034 147.0540 0001033 101.5700 293.2698 12.62270297706027 GLOBALSTAR M074 1 37189U 10054B 26037.59727824 -.00000083 00000+0 11516-3 0 9998 2 37189 52.0008 145.4915 0000917 120.2661 342.5136 12.62265705706664 GLOBALSTAR M076 1 37190U 10054C 26037.62447982 -.00000089 00000+0 81205-4 0 9997 2 37190 52.0022 145.6008 0001089 116.0547 350.0477 12.62270016706386 GLOBALSTAR M077 1 37191U 10054D 26037.60564289 -.00000049 00000+0 53251-3 0 9991 2 37191 51.9962 150.9275 0001428 114.8238 345.1039 11.68178421705888 GLOBALSTAR M075 1 37192U 10054E 26037.63195378 -.00000095 00000+0 47762-4 0 9996 2 37192 51.9929 187.7036 0000908 97.4562 343.4360 12.62264110705450 GLOBALSTAR M073 1 37193U 10054F 26037.22631201 -.00000078 00000+0 14546-3 0 9996 2 37193 52.0060 102.9397 0000836 114.0049 281.1709 12.62269254707398 GLOBALSTAR M083 1 37739U 11033A 26037.42295317 -.00000112 00000+0 -48506-4 0 9990 2 37739 51.9868 50.7473 0000575 99.6445 51.2914 12.62266868676433 GLOBALSTAR M088 1 37740U 11033B 26037.24144390 -.00000072 00000+0 17799-3 0 9999 2 37740 52.0238 317.4124 0000584 64.6843 100.5958 12.62261051671955 GLOBALSTAR M091 1 37741U 11033C 26037.09281111 -.00000078 00000+0 14567-3 0 9992 2 37741 51.9996 281.0265 0000898 62.0812 86.6531 12.62269556672728 GLOBALSTAR M085 1 37742U 11033D 26037.00265006 -.00000107 00000+0 -18076-4 0 9993 2 37742 52.0099 232.4760 0001109 74.1511 85.1556 12.62269072673221 GLOBALSTAR M081 1 37743U 11033E 26037.03014276 -.00000102 00000+0 86608-5 0 9999 2 37743 51.9932 234.9767 0001115 84.7647 80.1704 12.62262190673374 GLOBALSTAR M089 1 37744U 11033F 26037.60545896 -.00000099 00000+0 29125-4 0 9995 2 37744 51.9913 187.4079 0000991 116.8579 323.5024 12.62264136674297 GLOBALSTAR M084 1 38040U 11080A 26037.05093836 -.00000094 00000+0 52933-4 0 9996 2 38040 52.0014 56.5079 0000572 141.3182 237.5848 12.62267697652205 GLOBALSTAR M080 1 38041U 11080B 26037.02287032 -.00000091 00000+0 72109-4 0 9991 2 38041 52.0065 58.2665 0000320 36.1290 344.7543 12.62266074652328 GLOBALSTAR M082 1 38042U 11080C 26037.38675530 -.00000101 00000+0 14331-4 0 9990 2 38042 52.0097 12.6457 0000491 36.1962 128.8825 12.62267172653079 GLOBALSTAR M092 1 38043U 11080D 26037.17148174 -.00000077 00000+0 15082-3 0 9992 2 38043 52.0081 103.6908 0000640 118.5771 267.8857 12.62270015651509 GLOBALSTAR M090 1 38044U 11080E 26037.33409824 -.00000096 00000+0 44088-4 0 9993 2 38044 52.0147 6.7205 0000544 69.3330 95.0530 12.62266455653181 GLOBALSTAR M086 1 38045U 11080F 26037.27272862 -.00000088 00000+0 89576-4 0 9999 2 38045 51.9922 7.0501 0001442 108.5091 29.9732 12.62282452653121 GLOBALSTAR M097 1 39072U 13005A 26037.03348588 -.00000086 00000+0 97226-4 0 9991 2 39072 52.0047 282.5809 0000970 73.5681 286.5293 12.62268629600343 GLOBALSTAR M093 1 39073U 13005B 26037.00725853 -.00000080 00000+0 13016-3 0 9991 2 39073 52.0100 275.9586 0001235 70.3331 289.7669 12.62272665600295 GLOBALSTAR M094 1 39074U 13005C 26037.56160103 -.00000106 00000+0 -10913-4 0 9998 2 39074 51.9937 188.5157 0001161 92.0982 268.0018 12.62266797601979 GLOBALSTAR M096 1 39075U 13005D 26037.02036817 -.00000101 00000+0 17727-4 0 9998 2 39075 52.0049 238.8621 0001144 75.8803 284.2191 12.62263083600823 GLOBALSTAR M078 1 39076U 13005E 26037.15241497 -.00000040 00000+0 35473-3 0 9994 2 39076 51.9896 322.6522 0001053 11.2146 348.8744 12.62276704599469 GLOBALSTAR M095 1 39077U 13005F 26037.17894755 -.00000078 00000+0 14617-3 0 9996 2 39077 52.0103 319.9904 0000984 44.8146 315.2800 12.62268225599325 GLOBALSTAR M087 1 52888U 22064A 26037.19217497 -.00000085 00000+0 10564-3 0 9995 2 52888 51.9998 101.2622 0000684 97.8174 262.2771 12.62266621174599